User: anonymous
Location: Maiden_LMO
(35.5760°N, 81.2120°W)
Time: 09:33:41
(UTC-04:00)
Language:

Cosmos 2278 Rocket - Orbit

View from above orbital plane
View from above orbital plane
View from above satellite
View from above satellite

Ground track
Ground track

The orbit data is extracted from the following two-line orbital elements,

1 23088U 94023B   14259.13211437  .00000292  00000-0  17668-3 0   155
2 23088 070.9994 231.4420 0003980 217.8012 216.4708 14.14571778 53414
Epoch (UTC): 16 September 2014 03:10:14
Eccentricity: 0.0003980
inclination: 70.9994°
perigee height: 841 km
apogee height: 846 km
right ascension of ascending node: 231.4420°
argument of perigee: 217.8012°
revolutions per day: 14.14571778
mean anomaly at epoch: 216.4708°
orbit number at epoch: 5341

The dashed part of the orbit path shows where the satellite is in the earth's shadow,  

DLR